Enid, OK

12:07 PM CST on January 19, 2018 (GMT -0600)
Enid Woodring Municipal

Weather History for KWDG - December, 2012

Change the Weather History Date:

Thursday, December 6, 2012

  Actual Average Record
Temperature  
Mean Temperature 50 °F -  
Max Temperature 66 °F 49 °F 69 °F (2001)
Min Temperature 35 °F 32 °F 10 °F (2005)
Degree Days  
Heating Degree Days 14    
Moisture  
Dew Point 40 °F    
Average Humidity 80    
Maximum Humidity 100    
Minimum Humidity 43    
Precipitation  
Precipitation 0.00 in - - ()
Sea Level Pressure  
Sea Level Pressure 29.86 in    
Wind  
Wind Speed 9 mph (South)    
Max Wind Speed 16 mph    
Max Gust Speed 22 mph    
Visibility 9 miles    
Events      
Averages and records for this station are not official NWS values.
T = Trace of Precipitation, MM = Missing Value Source: NWS Daily Summary

Daily Weather History Graph

Daily Weather History Graph

Search for Another Location

Airport or City:

Trip Planner

Search our weather history database for the weather conditions in past years. The results will help you decide how hot, cold, wet, or windy it might be!

Date:

Astronomy

Dec. 06, 2012 Rise Set
Actual Time 7:29 AM CST 5:15 PM CST
Civil Twilight 7:00 AM CST 5:44 PM CST
Nautical Twilight 6:28 AM CST 6:16 PM CST
Astronomical Twilight 5:57 AM CST 6:47 PM CST
Moon No Moon Rise 12:32 PM CST (12/6)
Length of Visible Light 10h 43m
Length of Day
9h 46m
Waning Gibbous, 49% of the Moon is Illuminated
Dec 6
Waning Gibbous
Dec 13
New
Dec 19
First Quarter
Dec 28
Full
Jan 4
Last Quarter

Hourly Weather History & Observations

Time (CST) Temp. Windchill Dew Point Humidity Pressure Visibility Wind Dir Wind Speed Gust Speed Precip Events Conditions
12:15 AM 37.4 °F 32.1 °F 30.2 °F 75% 29.95 in 10.0 mi SE 6.9 mph - N/A   Clear
12:35 AM 37.4 °F 32.1 °F 30.2 °F 75% 29.94 in 10.0 mi SE 6.9 mph - N/A   Clear
12:55 AM 37.4 °F 32.1 °F 30.2 °F 75% 29.94 in 10.0 mi SSE 6.9 mph - N/A   Clear
1:15 AM 37.4 °F 32.8 °F 30.2 °F 75% 29.93 in 10.0 mi SSE 5.8 mph - N/A   Clear
2:35 AM 35.6 °F 30.7 °F 32.0 °F 87% 29.90 in 10.0 mi SSE 5.8 mph - N/A   Clear
2:55 AM 35.6 °F 30.7 °F 32.0 °F 87% 29.90 in 10.0 mi SE 5.8 mph - N/A   Clear
3:15 AM 35.6 °F 29.9 °F 32.0 °F 87% 29.89 in 10.0 mi SSE 6.9 mph - N/A   Clear
3:35 AM 35.6 °F 29.9 °F 33.8 °F 93% 29.88 in 10.0 mi SSE 6.9 mph - N/A   Clear
3:55 AM 37.4 °F 32.1 °F 35.6 °F 93% 29.87 in 10.0 mi South 6.9 mph - N/A   Clear
4:15 AM 35.6 °F 31.7 °F 35.6 °F 100% 29.87 in 10.0 mi South 4.6 mph - N/A   Clear
4:35 AM 37.4 °F 33.8 °F 35.6 °F 93% 29.86 in 7.0 mi South 4.6 mph - N/A   Clear
4:55 AM 42.8 °F 36.6 °F 42.8 °F 100% 29.85 in 7.0 mi South 11.5 mph - N/A   Clear
6:20 AM 46.4 °F 40.4 °F 44.6 °F 93% 29.84 in 7.0 mi South 13.8 mph - N/A   Clear
7:50 AM 46.4 °F 41.1 °F 44.6 °F 93% 29.82 in 7.0 mi SSE 11.5 mph - N/A   Mostly Cloudy
8:50 AM 50.0 °F - 48.2 °F 94% 29.84 in 5.0 mi South 6.9 mph - N/A   Overcast
9:50 AM 51.8 °F - 48.2 °F 88% 29.84 in 7.0 mi South 15.0 mph - N/A   Overcast
11:50 AM 62.6 °F - 46.4 °F 55% 29.79 in 7.0 mi South 15.0 mph 21.9 mph N/A   Mostly Cloudy
12:50 PM 62.6 °F - 46.4 °F 55% 29.78 in 7.0 mi South 16.1 mph - N/A   Mostly Cloudy
1:50 PM 64.4 °F - 44.6 °F 49% 29.77 in 7.0 mi SSW 13.8 mph - N/A   Mostly Cloudy
2:59 PM 66.2 °F - 42.8 °F 43% 29.78 in 7.0 mi SSW 10.4 mph - N/A   Mostly Cloudy
3:50 PM 64.4 °F - 42.8 °F 45% 29.79 in 7.0 mi West 6.9 mph - N/A   Mostly Cloudy
4:50 PM 59.0 °F - 44.6 °F 59% 29.80 in 7.0 mi NNW 10.4 mph - N/A   Mostly Cloudy
5:50 PM 53.6 °F - 44.6 °F 72% 29.82 in 10.0 mi North 11.5 mph - N/A   Mostly Cloudy
6:50 PM 62.6 °F - 46.4 °F 55% 29.84 in 10.0 mi North 11.5 mph - N/A   Mostly Cloudy
7:50 PM 48.2 °F - 42.8 °F 82% 29.86 in 10.0 mi North 9.2 mph - N/A   Mostly Cloudy
8:35 PM 46.4 °F 41.9 °F 42.8 °F 87% 29.86 in 10.0 mi North 9.2 mph - N/A   Clear
8:50 PM 46.4 °F 41.9 °F 42.8 °F 87% 29.87 in 10.0 mi North 9.2 mph - N/A   Mostly Cloudy
8:55 PM 46.4 °F 41.9 °F 41.0 °F 81% 29.86 in 10.0 mi North 9.2 mph - N/A   Clear
9:15 PM 46.4 °F 41.9 °F 42.8 °F 87% 29.87 in 10.0 mi North 9.2 mph - N/A   Clear
9:35 PM 46.4 °F 41.5 °F 41.0 °F 81% 29.87 in 10.0 mi NNW 10.4 mph - N/A   Clear
9:55 PM 44.6 °F 39.2 °F 41.0 °F 87% 29.86 in 10.0 mi North 10.4 mph - N/A   Clear
10:15 PM 44.6 °F 39.2 °F 41.0 °F 87% 29.86 in 10.0 mi North 10.4 mph - N/A   Clear
10:35 PM 44.6 °F 39.2 °F 41.0 °F 87% 29.85 in 10.0 mi North 10.4 mph - N/A   Clear
10:55 PM 44.6 °F 38.4 °F 41.0 °F 87% 29.85 in 10.0 mi NNW 12.7 mph - N/A   Clear
11:15 PM 44.6 °F 38.8 °F 41.0 °F 87% 29.85 in 7.0 mi North 11.5 mph - N/A   Clear
11:35 PM 44.6 °F 39.2 °F 41.0 °F 87% 29.86 in 7.0 mi NNW 10.4 mph - N/A   Clear
11:55 PM 44.6 °F 38.1 °F 42.8 °F 93% 29.86 in 7.0 mi North 13.8 mph - N/A   Clear